Regional Weather Roundup
Issued by NWS Grand Forks, ND

Home | Current Version | Previous Version | Graphics & Text | Print | Product List | Glossary On
Versions: 1 2 3 4 5 6 7 8 9 10 11 12 13 14 15 16 17 18 19 20 21 22 23 24 25 26 27 28 29 30 31 32 33 34 35 36 37 38 39 40 41 42 43 44 45 46 47 48 49 50
000
ASUS43 KFGF 130731
RWRFGF
PRAIRIE TO PINES  WEATHER ROUNDUP
NATIONAL WEATHER SERVICE EASTERN NORTH DAKOTA/GRAND FORKS ND
200 AM CDT SUN JUL 13 2014

 **SATELLITE DATA USED TO AUGMENT SKY COVER AT AUTOMATED STATIONS**
 *****  WEATHER ACROSS EASTERN NORTH DAKOTA  *****

CITY           SKY/WX    TMP DP  RH WIND       PRES   REMARKS
GRAND FORKS    CLEAR     54  53  97 W6        29.95F
GRAND FRKS AFB NOT AVBL
GRAND FRKS NWS   N/A     52 N/A N/A W3          N/A
DEVILS LAKE    CLEAR     55  46  71 W10       29.98S
FARGO          CLEAR     58  53  84 W6        29.98S
WAHPETON ARPT  MOSUNNY   55  52  88 NW5       29.99S
$$

 ***** WEATHER ACROSS CENTRAL AND WESTERN NORTH DAKOTA  *****

CITY           SKY/WX    TMP DP  RH WIND       PRES   REMARKS
BISMARCK       PTCLDY    61  55  81 W6        30.07S
MINOT          CLEAR     59  45  59 W12       30.05S
JAMESTOWN      CLEAR     57  53  86 W5        30.01F
MINOT AFB      NOT AVBL
GARRISON         N/A     57  52  83 NW9       30.07F
WILLISTON      CLEAR     58  52  80 NE5       30.13R
DICKINSON      CLEAR     54  48  80 W7        30.12F
HETTINGER      CLEAR     55  52  89 CALM      30.16S
$$

 *****  OTHER AIRPORT OBSERVATIONS IN OUR AREA  *****

CITY           SKY/WX    TMP DP  RH WIND       PRES   REMARKS
WALHALLA         N/A     52  52 100 W5          N/A
GRAFTON AIRPOR FAIR      54  54 100 SW5       29.94S
VALLEY CITY AR CLOUDY    54  54 100 NW5       30.00F
CANDO          FAIR      48  46  93 W9        30.00S
CAVALIER APRT  FAIR      54  54 100 CALM      29.93S FOG
GWINNER        SUNNY     57  57 100 W6        30.02S
ROLLA          PTSUNNY   54  45  71 NW12      30.01S
 ***** THE ABOVE OBSERVATIONS ARE NON NWS ARE NOT QUALITY
       CONTROLLED AND MAY MIS-REPORT RAIN FOR SNOW...
$$

  *****  WEATHER ACROSS NORTHERN MINNESOTA  *****

CITY           SKY/WX    TMP DP  RH WIND       PRES   REMARKS
FLAG ISLAND    CLEAR     55  46  71 W13       29.85F
WARROAD        CLEAR     52  46  82 SW6       29.90S
ROSEAU         PTCLDY    54  48  82 SW5       29.90F
HALLOCK        MOCLDY    57  55  94 SW7       29.91F
THF RVR FALLS  CLOUDY    54  52  94 SW6       29.94F VSB 1/4
BAUDETTE       CLEAR     49  47  93 VRB3      29.90S
WASKISH        CLEAR     57  50  77 W7        29.91S
CROOKSTON      FOG       52  52 100 SW5       29.96S VSB 1
$$
  *****  WEATHER ACROSS CENTRAL AND WEST MINNESOTA  *****

CITY           SKY/WX    TMP DP  RH WIND       PRES   REMARKS
FOSSTON        FOG       50  48  93 CALM      29.95F VSB 1
BEMIDJI        CLEAR     51  51  99 W6        29.93F
PARK RAPIDS    CLEAR     54  53  97 NW6       29.95R
ELBOW LAKE     FAIR      59  55  88 NW8       29.98R
WADENA         PTCLDY    57  54  88 NW3       29.96R
DETROIT LAKES  CLEAR     57  55  94 NW7       29.99S
MOORHEAD       CLEAR     57  57 100 CALM      29.98F
FERGUS FALLS   PTCLDY    57  52  82 NW6       29.98S
MORRIS MN      CLEAR     59  55  88 NW6       29.96S
STAPLES        PTCLDY    57  54  88 NW7       29.95S
$$
  *****  WEATHER ELSEWHERE ACROSS MINNESOTA  *****

CITY           SKY/WX    TMP DP  RH WIND       PRES   REMARKS
DULUTH         PTCLDY    58  52  80 NW13      29.87R
INTRNTL FALLS  CLEAR     49  47  93 W6        29.87F
ELY            MOCLDY    54  52  94 W5        29.85S
CLOQUET        PTCLDY    57  54  88 W9        29.89R
WHEATON        PTCLDY    57  54  88 NW6       30.00S
BRAINERD       MOCLDY    67  53  61 NW15      29.94R
HIBBING        CLEAR     55  51  86 NW6       29.89R
ALEXANDRIA     PTCLDY    62  54  74 N6        29.97S
SAINT CLOUD    CLEAR     66  61  84 NW8       29.91R
MINNEAPOLIS    CLEAR     67  65  93 SW7       29.90F
$$

  *****  WEATHER ACROSS SOUTH DAKOTA  *****

CITY           SKY/WX    TMP DP  RH WIND       PRES   REMARKS
SIOUX FALLS    CLEAR     66  63  90 CALM      30.01F
BROOKINGS      NOT AVBL
WATERTOWN      PTCLDY    66  62  87 W7        30.01S
HURON          MOCLDY    66  61  84 NW9       30.02S
SISSETON         N/A     60  56  86 NW6       29.99S
ABERDEEN       CLEAR     65  60  84 N13       30.03R
MITCHELL       CLEAR     67  63  87 NW8       30.03F
PIERRE         PTCLDY    67  64  90 CALM      30.07R
MOBRIDGE       CLEAR     60  58  92 CALM      30.05S
RAPID CITY     CLEAR     65  60  84 NW10      30.19F
$$

  *****  SOME WEATHER IN NEARBY STATES *****

CITY           SKY/WX    TMP DP  RH WIND       PRES   REMARKS
GLASGOW MT     NOT AVBL
GREAT FALLS MT NOT AVBL
CHEYENNE WY    LGT RAIN  60  57  89 NE14      30.41S
SCOTTSBLUFF NE PTCLDY    65  64  97 N3        30.26R
OMAHA NE       PTCLDY    70  66  87 S7        30.03R
DES MOINES IA  MOCLDY    68  66  93 SW5       30.00R
DAVENPORT IA     N/A     67  65  93 NW8       29.95R
CHICAGO IL     CLOUDY    71  66  84 W6        29.86R
EAU CLAIRE WI  CLEAR     64  63  96 SW5       29.87F
LA CROSSE WI   CLEAR     63  62  97 SE6       29.90F FOG
$$

  *****  SOME NATIONAL WEATHER *****

CITY           SKY/WX    TMP DP  RH WIND       PRES   REMARKS
LA GUARDIA NY  MOCLDY    73  64  73 S9        30.10F
RALEIGH NC     CLEAR     75  69  81 S6        30.14F
ATLANTA GA     PTCLDY    75  68  78 CALM      30.13F
NEW ORLEANS LA CLEAR     79  75  87 S5        30.03F
OKLAHOMA CITY  CLEAR     71  60  68 S7        30.06F
ALBUQUERQUE NM PTCLDY    76  54  46 S5        30.26R
SALT LAKE CITY NOT AVBL
LOS ANGELES CA MOCLDY    69  61  75 NW6       29.94F
BOISE ID       NOT AVBL
SEATTLE WA     CLEAR     71  53  52 N6        30.10R
$$

*** WEATHER ACROSS MANITOBA...SASKATCHEWAN AND ONTARIO ***
                ***ONTARIO***

CITY           SKY/WX    TMP DP  RH WIND       PRES   REMARKS
GERALDTON      LGT RAIN  59  52  77 W12G17    29.67F
THUNDER BAY    CLOUDY    59  52  77 W8        29.75R
SIOUX LOOKOUT  PTCLDY    50  48  93 W5        29.75F
TORONTO        CLOUDY    72  63  73 SE6       29.86F
BIG TROUT LK   MOCLDY    52  48  87 W7        29.52S
PICKLE LAKE    NOT AVBL
DRYDEN         CLEAR     50  48  93 SW12      29.79S
KENORA         PTCLDY    52  46  82 W9        29.84F
$$
                *** MANITOBA***

CITY           SKY/WX    TMP DP  RH WIND       PRES   REMARKS
BRANDON        CLEAR     50  46  87 W9        29.98S
DAUPHIN        CLEAR     54  45  71 W8        29.94F
ISLAND LAKE    LGT RAIN  50  46  87 NW14G22   29.60S
PILOT MOUND      N/A     52  45  76 W7          N/A
THE PAS        CLOUDY    55  45  67 NW18      29.91R
THOMPSON       LGT RAIN  46  46 100 NW12      29.72R
WINNIPEG       MOCLDY    54  52  94 SW7       29.90F
LYNN LAKE      CLOUDY    48  45  87 N14G28    29.93S
CHURCHILL      LGT RAIN  39  39 100 NE21      29.64R FOG
GILLAM         LGT RAIN  43  43 100 N12       29.60R
$$
                ***SASKATCHEWAN***

CITY           SKY/WX    TMP DP  RH WIND       PRES   REMARKS
ESTEVAN        CLEAR     50  48  93 W7        30.11R
KINDERSLEY     CLEAR     55  50  82 VRB2      30.20R
LLOYDMINSTER   CLEAR     52  48  87 CALM      30.20R
PRINCE ALBERT  CLEAR     50  43  76 NW7       30.11R
REGINA         CLEAR     50  46  87 VRB2      30.14R
YORKTON        CLEAR     54  45  71 W12       30.04R
N. BATTLEFORD  CLEAR     52  45  76 NW6       30.19S HAZE
LA RONGE       PTCLDY    55  43  62 N10       30.11R
SASKATOON      CLEAR     46  43  87 W8        30.17R
SWIFT CURRENT  CLEAR     54  48  82 VRB2      30.20R
$$
NOTE: THESE ARE AUTOMATED STATIONS WITH LIMITED QUALITY CONTROL
      "FAIR" INDICATES FEW OR NO CLOUDS BELOW 12,000 FEET WITH NO
      SIGNIFICANT WEATHER AND/OR OBSTRUCTIONS TO VISIBILITY.
      SKY/WX - SKY CONDITION AND SIGNIFICANT WEATHER.
      TMP - AIR TEMPERATURE.    DP   - DEWPOINT TEMPERATURE.
      RH  - RELATIVE HUMIDITY.  PRES - PRESSURE.
      HX  - HEAT INDEX.         WCI  - WIND CHILL INDEX.
$



USA.gov is the U.S. government's official web portal to all federal, state and local government web resources and services.